Weather History for Eastman, GA

Change the Weather History Date:

Saturday, March 15, 2014

  Actual Average Record
Temperature  
Mean Temperature 60 °F -  
Max Temperature 75 °F 70 °F 75 °F (2014)
Min Temperature 46 °F 43 °F 33 °F (2013)
Degree Days  
Heating Degree Days 4    
Growing Degree Days 10 (Base 50)    
Moisture  
Dew Point 48 °F    
Average Humidity 63    
Maximum Humidity 93    
Minimum Humidity 40    
Precipitation  
Precipitation 0.00 in - - ()
Sea Level Pressure  
Sea Level Pressure 30.13 in    
Wind  
Wind Speed 1 mph (WSW)    
Max Wind Speed 8 mph    
Max Gust Speed -    
Visibility 10 miles    
Events      
Averages and records for this station are not official NWS values.
T = Trace of Precipitation, MM = Missing Value Source: NWS Daily Summary

Daily Weather History Graph

Daily Weather History Graph

Search for Another Location

Airport:

Trip Planner

Search our weather history database for the weather conditions in past years. The results will help you decide how hot, cold, wet, or windy it might be!

Date:

Astronomy

Mar. 15, 2014 Rise Set
Actual Time 7:42 AM EDT 7:40 PM EDT
Civil Twilight 7:18 AM EDT 8:04 PM EDT
Nautical Twilight 6:49 AM EDT 8:33 PM EDT
Astronomical Twilight 6:21 AM EDT 9:02 PM EDT
Moon 6:59 PM EDT (3/15) 6:52 AM EDT (3/15)
Length of Visible Light 12h 46m
Length of Day
11h 57m
Waxing Gibbous, 99% of the Moon is Illuminated
Mar 15
Waxing Gibbous
Mar 16
Full
Mar 23
Last Quarter
Mar 30
New
Apr 7
First Quarter

Hourly Weather History & Observations

Time (EDT) Temp. Dew Point Humidity Pressure Visibility Wind Dir Wind Speed Gust Speed Precip Events Conditions
12:15 AM 52.2 °F 44.6 °F 75% 30.21 in 10.0 mi Calm Calm - N/A   Clear
12:35 AM 52.2 °F 44.2 °F 74% 30.20 in 10.0 mi Calm Calm - N/A   Clear
12:55 AM 52.7 °F 43.5 °F 71% 30.20 in 10.0 mi Calm Calm - N/A   Clear
1:15 AM 56.5 °F 40.1 °F 54% 30.18 in 10.0 mi Calm Calm - N/A   Scattered Clouds
1:35 AM 52.9 °F 42.8 °F 69% 30.18 in 10.0 mi SSW 3.5 mph - N/A   Scattered Clouds
1:55 AM 55.4 °F 39.2 °F 54% 30.18 in 10.0 mi Calm Calm - N/A   Scattered Clouds
2:15 AM 56.8 °F 37.6 °F 49% 30.17 in 10.0 mi Calm Calm - N/A   Scattered Clouds
2:35 AM 56.7 °F 37.4 °F 49% 30.16 in 10.0 mi Calm Calm - N/A   Clear
2:55 AM 56.3 °F 37.0 °F 48% 30.15 in 10.0 mi Calm Calm - N/A   Clear
3:15 AM 55.8 °F 37.4 °F 50% 30.16 in 10.0 mi Calm Calm - N/A   Clear
3:35 AM 55.2 °F 37.6 °F 52% 30.15 in 10.0 mi Calm Calm - N/A   Clear
3:55 AM 51.1 °F 38.8 °F 63% 30.15 in 10.0 mi Calm Calm - N/A   Clear
4:15 AM 51.8 °F 39.9 °F 64% 30.14 in 10.0 mi Calm Calm - N/A   Scattered Clouds
4:35 AM 49.1 °F 43.9 °F 82% 30.14 in 10.0 mi Calm Calm - N/A   Mostly Cloudy
4:55 AM 48.2 °F 43.2 °F 83% 30.14 in 10.0 mi Calm Calm - N/A   Mostly Cloudy
5:15 AM 48.0 °F 44.1 °F 86% 30.14 in 10.0 mi Calm Calm - N/A   Scattered Clouds
5:35 AM 47.1 °F 45.0 °F 92% 30.14 in 10.0 mi Calm Calm - N/A   Clear
5:55 AM 46.8 °F 44.8 °F 93% 30.15 in 10.0 mi Calm Calm - N/A   Clear
6:15 AM 46.6 °F 43.5 °F 89% 30.15 in 10.0 mi Calm Calm - N/A   Scattered Clouds
6:35 AM 46.4 °F 43.9 °F 91% 30.15 in 10.0 mi Calm Calm - N/A   Mostly Cloudy
6:55 AM 46.8 °F 45.0 °F 93% 30.15 in 10.0 mi South 3.5 mph - N/A   Overcast
7:15 AM 47.5 °F 45.3 °F 92% 30.16 in 10.0 mi Calm Calm - N/A   Overcast
7:35 AM 47.8 °F 45.7 °F 92% 30.16 in 10.0 mi Calm Calm - N/A   Overcast
7:55 AM 49.3 °F 44.8 °F 84% 30.17 in 10.0 mi Calm Calm - N/A   Mostly Cloudy
8:15 AM 49.3 °F 44.4 °F 83% 30.18 in 10.0 mi Calm Calm - N/A   Scattered Clouds
8:35 AM 48.9 °F 46.0 °F 90% 30.18 in 10.0 mi Calm Calm - N/A   Clear
8:55 AM 51.6 °F 45.1 °F 79% 30.19 in 10.0 mi Calm Calm - N/A   Mostly Cloudy
9:15 AM 53.1 °F 45.7 °F 76% 30.19 in 10.0 mi South 4.6 mph - N/A   Mostly Cloudy
9:35 AM 54.1 °F 46.0 °F 74% 30.20 in 10.0 mi SSW 3.5 mph - N/A   Overcast
9:55 AM 57.2 °F 46.4 °F 67% 30.20 in 10.0 mi South 4.6 mph - N/A   Mostly Cloudy
10:15 AM 59.9 °F 47.1 °F 63% 30.20 in 10.0 mi South 4.6 mph - N/A   Scattered Clouds
10:35 AM 61.7 °F 47.7 °F 60% 30.20 in 10.0 mi SSW 4.6 mph - N/A   Clear
10:55 AM 61.7 °F 48.4 °F 62% 30.20 in 10.0 mi South 5.8 mph - N/A   Clear
11:15 AM 62.4 °F 49.1 °F 62% 30.19 in 10.0 mi SSW 3.5 mph - N/A   Clear
11:35 AM 64.4 °F 49.8 °F 59% 30.19 in 10.0 mi SW 4.6 mph - N/A   Clear
11:55 AM 64.9 °F 49.8 °F 58% 30.18 in 10.0 mi West 3.5 mph - N/A   Clear
12:15 PM 67.5 °F 50.4 °F 54% 30.17 in 10.0 mi Calm Calm - N/A   Clear
12:35 PM 68.9 °F 49.3 °F 50% 30.17 in 10.0 mi West 5.8 mph - N/A   Clear
12:55 PM 70.3 °F 48.4 °F 46% 30.16 in 10.0 mi WNW 3.5 mph - N/A   Clear
1:15 PM 70.9 °F 47.8 °F 44% 30.15 in 10.0 mi Calm Calm - N/A   Clear
1:35 PM 72.3 °F 48.6 °F 43% 30.15 in 10.0 mi WNW 3.5 mph - N/A   Clear
2:15 PM 73.6 °F 48.0 °F 40% 30.12 in 10.0 mi Calm Calm - N/A   Clear
2:35 PM 74.5 °F 48.7 °F 40% 30.11 in 10.0 mi SSW 6.9 mph - N/A   Clear
2:55 PM 73.0 °F 48.0 °F 41% 30.10 in 10.0 mi West 3.5 mph - N/A   Scattered Clouds
3:15 PM 72.7 °F 49.1 °F 43% 30.09 in 10.0 mi SW 4.6 mph - N/A   Clear
3:35 PM 74.1 °F 49.1 °F 41% 30.08 in 10.0 mi Calm Calm - N/A   Clear
3:55 PM 74.8 °F 50.0 °F 42% 30.08 in 10.0 mi WSW 8.1 mph - N/A   Scattered Clouds
4:15 PM 74.1 °F 49.8 °F 42% 30.07 in 10.0 mi SW 4.6 mph - N/A   Scattered Clouds
4:35 PM 74.7 °F 50.0 °F 42% 30.06 in 10.0 mi NNW 3.5 mph - N/A   Clear
4:55 PM 75.2 °F 50.9 °F 42% 30.06 in 10.0 mi West 8.1 mph - N/A   Clear
5:15 PM 74.3 °F 50.9 °F 44% 30.05 in 10.0 mi West 5.8 mph - N/A   Scattered Clouds
5:35 PM 75.9 °F 50.9 °F 41% 30.05 in 10.0 mi West 4.6 mph - N/A   Clear
5:55 PM 74.8 °F 50.7 °F 43% 30.05 in 10.0 mi West 4.6 mph - N/A   Scattered Clouds
6:15 PM 74.3 °F 51.3 °F 44% 30.05 in 10.0 mi West 6.9 mph - N/A   Scattered Clouds
6:35 PM 73.2 °F 50.9 °F 45% 30.06 in 10.0 mi WNW 5.8 mph - N/A   Scattered Clouds
6:55 PM 72.9 °F 51.6 °F 47% 30.06 in 10.0 mi West 4.6 mph - N/A   Mostly Cloudy
7:15 PM 72.0 °F 51.8 °F 49% 30.05 in 10.0 mi Calm Calm - N/A   Mostly Cloudy
7:35 PM 70.5 °F 52.3 °F 52% 30.06 in 10.0 mi Calm Calm - N/A   Scattered Clouds
7:55 PM 67.1 °F 53.2 °F 61% 30.06 in 10.0 mi Calm Calm - N/A   Clear
8:15 PM 67.6 °F 53.2 °F 60% 30.06 in 10.0 mi Calm Calm - N/A   Clear
8:35 PM 66.7 °F 53.6 °F 63% 30.06 in 10.0 mi Calm Calm - N/A   Scattered Clouds
8:55 PM 66.4 °F 54.7 °F 66% 30.06 in 10.0 mi Calm Calm - N/A   Scattered Clouds
9:15 PM 64.8 °F 54.3 °F 69% 30.06 in 10.0 mi Calm Calm - N/A   Mostly Cloudy
9:35 PM 63.9 °F 54.7 °F 72% 30.06 in 10.0 mi Calm Calm - N/A   Overcast
9:55 PM 64.9 °F 55.2 °F 71% 30.06 in 10.0 mi Calm Calm - N/A   Overcast
10:15 PM 62.8 °F 54.7 °F 75% 30.07 in 10.0 mi Calm Calm - N/A   Mostly Cloudy
10:35 PM 63.0 °F 55.2 °F 76% 30.06 in 10.0 mi Calm Calm - N/A   Overcast
10:55 PM 62.1 °F 57.0 °F 84% 30.06 in 10.0 mi Calm Calm - N/A   Scattered Clouds
11:15 PM 61.7 °F 56.7 °F 84% 30.06 in 10.0 mi Calm Calm - N/A   Mostly Cloudy
11:35 PM 61.0 °F 55.9 °F 83% 30.05 in 10.0 mi Calm Calm - N/A   Overcast
11:55 PM 60.8 °F 55.8 °F 83% 30.05 in 10.0 mi Calm Calm - N/A   Scattered Clouds